User: anonymous   Login
Location: Caltech
(34.1382°N, 118.1253°W)
Time: 00:26:54
(UTC-08:00)
Language:

IRS-1A Rocket - Orbit

View from above orbital plane
View from above orbital plane
View from above satellite
View from above satellite

Ground track
Ground track

The orbit data is extracted from the following two-line orbital elements,

1 18961U 88021B   15058.91964916 -.00000200  00000-0 -10162-3 0  9995
2 18961 099.2883 041.4459 0054622 011.4857 047.1825 14.00661679377798
Epoch (UTC): 27 February 2015 22:04:17
Eccentricity: 0.0054622
inclination: 99.2883°
perigee height: 852 km
apogee height: 931 km
right ascension of ascending node: 41.4459°
argument of perigee: 11.4857°
revolutions per day: 14.00661679
mean anomaly at epoch: 47.1825°
orbit number at epoch: 37779

The dashed part of the orbit path shows where the satellite is in the earth's shadow,  

DLR